Location: Ferchesar
(52.6477°N, 12.4298°E)
Time: 00:13:04
(UTC+01:00)

Transit 4A - Pass Details

Date: 16 December 2021
Orbit: 864 x 981 km, 66.8° (Epoch: 19 January)

Event Time Altitude Azimuth Distance (km) Brightness Sun altitude
Rises 19:28:09 0° 268° (W) 3,517 12.1 -30.7°
Reaches altitude 10° 19:31:01 10° 280° (W) 2,597 11.1 -31.1°
Maximum altitude 19:36:09 28° 338° (NNW) 1,673 9.4 -31.9°
Enters shadow 19:37:01 27° 352° (N) 1,712 9.3 -32.0°
